TimeHST,TemperatureF,Dew PointF,Humidity,Sea Level PressureIn,VisibilityMPH,Wind Direction,Wind SpeedMPH,Gust SpeedMPH,PrecipitationIn,Events,Conditions,WindDirDegrees,DateUTC
12:53 AM,72.0,61.0,68,30.13,10.0,NE,17.3,-,N/A,,Mostly Cloudy,40,2013-05-12 10:53:00
1:53 AM,72.0,61.0,68,30.12,10.0,NE,17.3,-,N/A,,Partly Cloudy,40,2013-05-12 11:53:00
2:28 AM,71.6,62.6,73,30.12,10.0,NE,17.3,23.0,N/A,,Overcast,40,2013-05-12 12:28:00
2:44 AM,71.6,62.6,73,30.11,10.0,NE,16.1,-,N/A,,Overcast,40,2013-05-12 12:44:00
2:53 AM,72.0,62.1,71,30.10,10.0,NNE,17.3,-,N/A,,Overcast,30,2013-05-12 12:53:00
3:53 AM,72.0,62.1,71,30.09,10.0,NNE,13.8,-,N/A,,Overcast,30,2013-05-12 13:53:00
4:53 AM,72.0,62.1,71,30.09,10.0,NE,18.4,-,N/A,,Mostly Cloudy,40,2013-05-12 14:53:00
5:00 AM,71.6,62.6,73,30.10,10.0,NNE,15.0,-,N/A,,Mostly Cloudy,30,2013-05-12 15:00:00
5:13 AM,71.6,62.6,73,30.11,10.0,NE,13.8,-,N/A,,Mostly Cloudy,40,2013-05-12 15:13:00
5:35 AM,69.8,62.6,78,30.12,9.0,NNE,10.4,-,0.00,Rain,Light Rain,30,2013-05-12 15:35:00
5:53 AM,70.0,64.0,81,30.12,10.0,NNE,12.7,-,0.03,Rain,Light Rain,20,2013-05-12 15:53:00
6:31 AM,71.6,64.4,78,30.13,10.0,NNE,17.3,-,0.00,,Overcast,30,2013-05-12 16:31:00
6:53 AM,71.1,63.0,75,30.14,10.0,NE,17.3,-,0.00,,Mostly Cloudy,40,2013-05-12 16:53:00
7:34 AM,71.6,62.6,73,30.15,10.0,NE,18.4,-,N/A,,Overcast,40,2013-05-12 17:34:00
7:53 AM,72.0,64.0,76,30.16,10.0,NE,16.1,-,N/A,,Overcast,40,2013-05-12 17:53:00
8:24 AM,73.4,64.4,73,30.16,10.0,NE,16.1,-,N/A,,Overcast,40,2013-05-12 18:24:00
8:53 AM,73.0,63.0,71,30.17,10.0,NE,16.1,-,N/A,,Overcast,40,2013-05-12 18:53:00
9:29 AM,75.2,64.4,69,30.17,10.0,NNE,15.0,-,N/A,,Overcast,30,2013-05-12 19:29:00
9:53 AM,75.0,64.9,71,30.16,10.0,NE,15.0,-,N/A,,Overcast,50,2013-05-12 19:53:00
10:03 AM,75.2,64.4,69,30.17,10.0,NE,15.0,-,N/A,,Overcast,40,2013-05-12 20:03:00
10:53 AM,78.1,66.0,66,30.15,10.0,NE,16.1,-,N/A,,Overcast,50,2013-05-12 20:53:00
11:53 AM,78.1,64.9,64,30.15,10.0,NE,13.8,-,N/A,,Overcast,50,2013-05-12 21:53:00
12:53 PM,77.0,66.0,69,30.13,10.0,ENE,16.1,-,N/A,,Overcast,60,2013-05-12 22:53:00
1:53 PM,77.0,66.0,69,30.12,10.0,NE,13.8,-,N/A,,Overcast,50,2013-05-12 23:53:00
2:06 PM,75.2,64.4,69,30.12,10.0,ENE,16.1,-,N/A,,Overcast,60,2013-05-13 00:06:00
2:24 PM,77.0,64.4,65,30.11,10.0,NE,13.8,-,N/A,,Overcast,50,2013-05-13 00:24:00
2:53 PM,78.1,64.9,64,30.10,10.0,NE,13.8,-,N/A,,Overcast,50,2013-05-13 00:53:00
3:18 PM,77.0,66.2,69,30.10,10.0,ENE,13.8,-,N/A,,Overcast,60,2013-05-13 01:18:00
3:36 PM,77.0,66.2,69,30.09,10.0,ENE,17.3,-,N/A,,Overcast,70,2013-05-13 01:36:00
3:53 PM,75.9,68.0,76,30.09,10.0,ENE,13.8,-,N/A,,Overcast,60,2013-05-13 01:53:00
4:53 PM,75.0,66.9,76,30.08,10.0,ENE,15.0,-,N/A,,Overcast,60,2013-05-13 02:53:00
5:46 PM,75.2,66.2,73,30.07,10.0,NE,15.0,-,N/A,,Overcast,50,2013-05-13 03:46:00
5:53 PM,75.0,66.0,73,30.07,10.0,ENE,18.4,-,N/A,,Overcast,60,2013-05-13 03:53:00
6:13 PM,75.2,66.2,73,30.07,10.0,ENE,16.1,-,N/A,,Overcast,60,2013-05-13 04:13:00
6:53 PM,73.9,66.0,76,30.08,10.0,NE,18.4,-,N/A,,Overcast,50,2013-05-13 04:53:00
7:53 PM,71.1,68.0,90,30.10,9.0,NE,12.7,-,0.00,Rain,Light Rain,40,2013-05-13 05:53:00
8:53 PM,73.0,66.0,79,30.10,10.0,ENE,16.1,-,0.00,,Overcast,60,2013-05-13 06:53:00
9:53 PM,73.0,66.0,79,30.11,10.0,ENE,19.6,-,N/A,,Overcast,60,2013-05-13 07:53:00
10:53 PM,72.0,66.9,84,30.12,10.0,NE,18.4,-,N/A,,Overcast,50,2013-05-13 08:53:00
11:20 PM,73.4,66.2,78,30.12,10.0,NE,16.1,21.9,N/A,,Overcast,40,2013-05-13 09:20:00
11:53 PM,73.0,66.9,81,30.11,10.0,NE,16.1,-,N/A,,Overcast,40,2013-05-13 09:53:00